Regional Weather Roundup
Issued by NWS Goodland, KS

Home | Current Version | Previous Version | Graphics & Text | Print | Product List | Glossary On
Versions: 1 2 3 4 5 6 7 8 9 10 11 12 13 14 15 16 17 18 19 20 21 22 23 24 25 26 27 28 29 30 31 32 33 34 35 36 37 38 39 40 41 42 43 44 45 46 47 48 49 50
050
ASUS43 KGLD 270408
RWRGLD

GOODLAND FORECAST AREA HOURLY WEATHER ROUNDUP
NATIONAL WEATHER SERVICE GOODLAND KS
1000 PM MDT SUN MAR 26 2017

...OFFICIAL OBSERVATIONS...

CITY           SKY/WX    TMP DP  RH WIND       PRES   REMARKS
GOODLAND KS    CLEAR     36  35  96 SW5       29.95R
HILL CITY KS   CLOUDY    44  44 100 CALM      29.94F
IMPERIAL NEB   MOCLDY    43  40  89 SW7       29.93R
MCCOOK NEB     MOCLDY    43  41  93 SW5       29.93S
AKRON CO       CLEAR     38  34  85 NW10      29.96S
BURLINGTON CO  CLEAR     36  36 100 SW8       29.96R
LIMON CO       CLOUDY    32  31  96 NW3       29.98F
$$

...UNOFFICIAL OBSERVATIONS...

CITY           SKY/WX    TMP DP  RH WIND       PRES   REMARKS
LENORA KS        N/A     43  32  65 CALM        N/A
NORTON KS      CLOUDY    45  39  81 CALM      29.91
SHARON SPRINGS   N/A     39  38  97 CALM        N/A
TRENTON NEB      N/A     39  32  76 CALM        N/A
YUMA CO        MOCLDY    41  37  87 CALM      29.95S
$$




USA.gov is the U.S. government's official web portal to all federal, state and local government web resources and services.